DKH1281 ZSPD-ZYCC

Flight info

Callsign DKH1281
Flight time 2h 6m
Altitude 31100
Route ODULO B221 XDX W174 FD W172 TEKAM V68 DOBGA W202 UDETI A588 LEMOT 859
Aircraft A321/M-SDE2E3FGILRWXY/LB2

Departure

Time 2026-04-18 05:47
Airport Shanghai Pudong International Airport (ZSPD)

Arrival

Time 2026-04-18 07:54
Airport Changchun Longjia International Airport (ZYCC)
Time Latitude Longitude Altitude Speed Heading
2026-04-18 04:57 31.15274 121.80965 24 ft 0 kts 72°
2026-04-18 05:32 31.15273 121.80962 24 ft 1 kts 72°
2026-04-18 05:32 31.15268 121.80943 24 ft 3 kts 76°
2026-04-18 05:32 31.15264 121.80919 24 ft 3 kts 83°
2026-04-18 05:33 31.15262 121.80896 24 ft 3 kts 95°
2026-04-18 05:33 31.15266 121.80874 24 ft 3 kts 122°
2026-04-18 05:33 31.15275 121.80862 24 ft 1 kts 161°
2026-04-18 05:33 31.15276 121.80862 24 ft 0 kts 162°
2026-04-18 05:37 31.15273 121.80863 24 ft 2 kts 162°
2026-04-18 05:37 31.15229 121.80880 24 ft 11 kts 162°
2026-04-18 05:37 31.15154 121.80908 24 ft 12 kts 162°
2026-04-18 05:37 31.15065 121.80941 24 ft 14 kts 162°
2026-04-18 05:38 31.14964 121.80979 24 ft 15 kts 162°
2026-04-18 05:38 31.14870 121.81015 24 ft 11 kts 162°
2026-04-18 05:38 31.14793 121.81044 24 ft 13 kts 162°
2026-04-18 05:38 31.14703 121.81078 24 ft 15 kts 162°
2026-04-18 05:39 31.14609 121.81114 24 ft 13 kts 162°
2026-04-18 05:39 31.14544 121.81163 24 ft 12 kts 106°
2026-04-18 05:39 31.14557 121.81242 24 ft 9 kts 70°
2026-04-18 05:39 31.14565 121.81317 24 ft 10 kts 117°
2026-04-18 05:40 31.14501 121.81361 24 ft 12 kts 161°
2026-04-18 05:40 31.14401 121.81401 24 ft 20 kts 162°
2026-04-18 05:40 31.14262 121.81452 24 ft 22 kts 162°
2026-04-18 05:40 31.14114 121.81508 24 ft 22 kts 162°
2026-04-18 05:41 31.13962 121.81567 24 ft 24 kts 161°
2026-04-18 05:41 31.13803 121.81626 24 ft 24 kts 162°
2026-04-18 05:41 31.13647 121.81684 24 ft 20 kts 162°
2026-04-18 05:41 31.13509 121.81736 24 ft 22 kts 162°
2026-04-18 05:42 31.13362 121.81792 24 ft 23 kts 162°
2026-04-18 05:42 31.13208 121.81851 24 ft 22 kts 163°
2026-04-18 05:42 31.13062 121.81904 24 ft 21 kts 162°
2026-04-18 05:42 31.12924 121.81957 24 ft 21 kts 162°
2026-04-18 05:43 31.12793 121.82007 24 ft 16 kts 162°
2026-04-18 05:43 31.12694 121.82044 24 ft 14 kts 162°
2026-04-18 05:43 31.12612 121.82075 24 ft 9 kts 157°
2026-04-18 05:43 31.12583 121.82135 24 ft 10 kts 78°
2026-04-18 05:44 31.12596 121.82189 24 ft 4 kts 72°
2026-04-18 05:44 31.12598 121.82197 24 ft 1 kts 72°
2026-04-18 05:44 31.12602 121.82210 24 ft 3 kts 72°
2026-04-18 05:44 31.12610 121.82238 24 ft 5 kts 72°
2026-04-18 05:45 31.12614 121.82253 24 ft 0 kts 72°
2026-04-18 05:45 31.12614 121.82254 24 ft 0 kts 72°
2026-04-18 05:45 31.12615 121.82257 24 ft 2 kts 72°
2026-04-18 05:46 31.12630 121.82309 24 ft 11 kts 72°
2026-04-18 05:46 31.12679 121.82377 24 ft 10 kts 352°
2026-04-18 05:46 31.12750 121.82350 24 ft 15 kts 341°
2026-04-18 05:46 31.13002 121.82254 25 ft 72 kts 342°
2026-04-18 05:47 31.13701 121.81993 25 ft 136 kts 340°
2026-04-18 05:47 31.14729 121.81594 302 ft 159 kts 343°
2026-04-18 05:47 31.15781 121.81181 952 ft 163 kts 343°
2026-04-18 05:47 31.16888 121.80881 1624 ft 164 kts 352°
2026-04-18 05:48 31.18070 121.81000 2032 ft 180 kts 15°
2026-04-18 05:48 31.19315 121.81401 2403 ft 193 kts 13°
2026-04-18 05:48 31.20692 121.81711 2711 ft 212 kts
2026-04-18 05:48 31.22220 121.81971 3043 ft 230 kts
2026-04-18 05:49 31.23850 121.82247 3560 ft 240 kts
2026-04-18 05:49 31.25518 121.82559 4220 ft 245 kts 10°
2026-04-18 05:49 31.27215 121.82886 4896 ft 248 kts 10°
2026-04-18 05:49 31.28929 121.83203 5567 ft 252 kts
2026-04-18 05:50 31.30649 121.83515 6212 ft 255 kts
2026-04-18 05:50 31.32411 121.83840 6872 ft 258 kts 10°
2026-04-18 05:50 31.34198 121.84172 7522 ft 262 kts 10°
2026-04-18 05:50 31.36008 121.84507 8161 ft 265 kts
2026-04-18 05:51 31.37862 121.84603 8761 ft 270 kts 358°
2026-04-18 05:51 31.39749 121.84399 9358 ft 274 kts 354°
2026-04-18 05:51 31.41658 121.84108 9915 ft 279 kts 353°
2026-04-18 05:51 31.43629 121.83823 10237 ft 294 kts 354°
2026-04-18 05:52 31.45732 121.83561 10436 ft 313 kts 355°
2026-04-18 05:52 31.47962 121.83305 10638 ft 331 kts 355°
2026-04-18 05:52 31.50313 121.83034 10842 ft 348 kts 354°
2026-04-18 05:52 31.52777 121.82740 11044 ft 364 kts 354°
2026-04-18 05:53 31.55335 121.82428 11445 ft 373 kts 354°
2026-04-18 05:53 31.57922 121.82110 12039 ft 375 kts 354°
2026-04-18 05:53 31.60533 121.81792 12563 ft 379 kts 354°
2026-04-18 05:53 31.63168 121.81473 12774 ft 382 kts 354°
2026-04-18 05:54 31.65812 121.81154 12781 ft 382 kts 354°
2026-04-18 05:54 31.68429 121.80837 12779 ft 382 kts 354°
2026-04-18 05:54 31.71099 121.80512 12814 ft 382 kts 354°
2026-04-18 05:54 31.73747 121.80190 13143 ft 384 kts 354°
2026-04-18 05:55 31.76417 121.79866 13719 ft 386 kts 354°
2026-04-18 05:55 31.79070 121.79544 14256 ft 389 kts 353°
2026-04-18 05:55 31.81774 121.79210 14778 ft 392 kts 353°
2026-04-18 05:55 31.84496 121.78878 15291 ft 396 kts 353°
2026-04-18 05:56 31.87249 121.78547 15788 ft 399 kts 353°
2026-04-18 05:56 31.90023 121.78211 16282 ft 402 kts 353°
2026-04-18 05:56 31.92812 121.77881 16767 ft 405 kts 353°
2026-04-18 05:56 31.95636 121.77553 17232 ft 408 kts 353°
2026-04-18 05:57 32.01324 121.76887 18154 ft 414 kts 352°
2026-04-18 05:57 32.04205 121.76544 18592 ft 417 kts 352°
2026-04-18 05:57 32.07103 121.76200 18999 ft 420 kts 352°
2026-04-18 05:58 32.10020 121.75856 19396 ft 424 kts 352°
2026-04-18 05:58 32.12968 121.75508 19789 ft 427 kts 352°
2026-04-18 05:58 32.15931 121.75157 20174 ft 430 kts 352°
2026-04-18 05:58 32.18888 121.74806 20541 ft 433 kts 351°
2026-04-18 05:59 32.21909 121.74444 20711 ft 437 kts 351°
2026-04-18 05:59 32.24923 121.74085 20702 ft 436 kts 351°
2026-04-18 05:59 32.27944 121.73729 20702 ft 436 kts 352°
2026-04-18 05:59 32.30962 121.73373 20702 ft 436 kts 352°
2026-04-18 06:00 32.33985 121.73015 20848 ft 437 kts 351°
2026-04-18 06:00 32.37020 121.72652 21246 ft 439 kts 351°
2026-04-18 06:00 32.39038 121.72412 21496 ft 441 kts 351°
2026-04-18 06:00 32.42131 121.72044 21848 ft 444 kts 351°
2026-04-18 06:01 32.46217 121.71555 22300 ft 447 kts 351°
2026-04-18 06:01 32.48323 121.71304 22530 ft 449 kts 351°
2026-04-18 06:01 32.51392 121.70938 22856 ft 452 kts 351°
2026-04-18 06:01 32.55596 121.70435 23277 ft 455 kts 351°
2026-04-18 06:02 32.57692 121.70184 23484 ft 457 kts 351°
2026-04-18 06:02 32.60855 121.69805 23791 ft 459 kts 351°
2026-04-18 06:02 32.64055 121.69422 24096 ft 462 kts 351°
2026-04-18 06:02 32.67256 121.69040 24386 ft 464 kts 351°
2026-04-18 06:03 32.70477 121.68655 24668 ft 467 kts 351°
2026-04-18 06:03 32.73718 121.68265 24943 ft 469 kts 351°
2026-04-18 06:03 32.76969 121.67873 25209 ft 471 kts 351°
2026-04-18 06:03 32.80244 121.67480 25478 ft 473 kts 351°
2026-04-18 06:04 32.83533 121.67085 25727 ft 476 kts 351°
2026-04-18 06:04 32.86832 121.66688 25979 ft 478 kts 351°
2026-04-18 06:04 32.90143 121.66289 26232 ft 480 kts 351°
2026-04-18 06:04 32.93476 121.65888 26472 ft 482 kts 351°
2026-04-18 06:05 32.96819 121.65486 26707 ft 484 kts 351°
2026-04-18 06:05 33.00186 121.65080 26971 ft 485 kts 351°
2026-04-18 06:05 33.03543 121.64675 27321 ft 484 kts 351°
2026-04-18 06:05 33.06898 121.64270 27576 ft 485 kts 351°
2026-04-18 06:06 33.10251 121.63864 27867 ft 485 kts 351°
2026-04-18 06:06 33.13603 121.63457 28148 ft 485 kts 351°
2026-04-18 06:06 33.16962 121.63051 28435 ft 484 kts 351°
2026-04-18 06:06 33.20311 121.62647 28718 ft 484 kts 351°
2026-04-18 06:07 33.23666 121.62207 28981 ft 483 kts 348°
2026-04-18 06:07 33.26899 121.61249 29227 ft 477 kts 336°
2026-04-18 06:07 33.29971 121.59787 29492 ft 474 kts 332°
2026-04-18 06:07 33.32946 121.58212 29762 ft 473 kts 331°
2026-04-18 06:08 33.35976 121.56555 30029 ft 472 kts 330°
2026-04-18 06:08 33.38936 121.54962 30295 ft 472 kts 331°
2026-04-18 06:08 33.41953 121.53401 30577 ft 472 kts 331°
2026-04-18 06:08 33.44977 121.51878 30818 ft 472 kts 331°
2026-04-18 06:09 33.47999 121.50361 31088 ft 471 kts 331°
2026-04-18 06:09 33.54014 121.47268 31104 ft 469 kts 330°
2026-04-18 06:10 33.59990 121.44151 31106 ft 469 kts 330°
2026-04-18 06:10 33.65989 121.41052 31112 ft 470 kts 330°
2026-04-18 06:11 33.72081 121.38125 31114 ft 471 kts 332°
2026-04-18 06:11 33.78189 121.35256 31118 ft 471 kts 332°
2026-04-18 06:12 33.84293 121.32366 31124 ft 471 kts 332°
2026-04-18 06:12 33.90396 121.29468 31137 ft 471 kts 332°
2026-04-18 06:13 33.96501 121.26573 31149 ft 471 kts 332°
2026-04-18 06:13 34.02600 121.23673 31155 ft 471 kts 333°
2026-04-18 06:14 34.08662 121.20788 31158 ft 469 kts 333°
2026-04-18 06:14 34.14714 121.17901 31151 ft 466 kts 333°
2026-04-18 06:15 34.20735 121.15025 31112 ft 463 kts 333°
2026-04-18 06:15 34.26714 121.12167 31073 ft 461 kts 333°
2026-04-18 06:16 34.32683 121.09304 31066 ft 461 kts 333°
2026-04-18 06:16 34.38681 121.06424 31003 ft 465 kts 333°
2026-04-18 06:17 34.44680 121.03545 31175 ft 467 kts 333°
2026-04-18 06:17 34.47702 121.02090 31437 ft 466 kts 333°
2026-04-18 06:17 34.50710 121.00642 31692 ft 465 kts 333°
2026-04-18 06:17 34.53713 120.99196 31946 ft 464 kts 333°
2026-04-18 06:18 34.56716 120.97749 32137 ft 465 kts 333°
2026-04-18 06:18 34.62735 120.94838 32126 ft 465 kts 333°
2026-04-18 06:19 34.68752 120.91929 32126 ft 465 kts 333°
2026-04-18 06:19 34.74762 120.89018 32128 ft 465 kts 333°
2026-04-18 06:20 34.80740 120.86117 32133 ft 465 kts 333°
2026-04-18 06:20 34.86753 120.83196 32171 ft 465 kts 333°
2026-04-18 06:21 34.92756 120.80276 32164 ft 464 kts 333°
2026-04-18 06:21 34.98754 120.77354 32166 ft 463 kts 333°
2026-04-18 06:22 35.04716 120.74440 32142 ft 461 kts 333°
2026-04-18 06:22 35.10677 120.71526 32108 ft 461 kts 333°
2026-04-18 06:23 35.16626 120.68614 32077 ft 460 kts 333°
2026-04-18 06:23 35.22582 120.65722 32079 ft 461 kts 333°
2026-04-18 06:24 35.28514 120.62854 32092 ft 461 kts 333°
2026-04-18 06:24 35.34458 120.59959 32156 ft 459 kts 333°
2026-04-18 06:25 35.40397 120.57062 32170 ft 459 kts 333°
2026-04-18 06:25 35.46347 120.54195 32167 ft 459 kts 334°
2026-04-18 06:26 35.52285 120.51329 32173 ft 458 kts 334°
2026-04-18 06:26 35.58203 120.48427 32170 ft 458 kts 334°
2026-04-18 06:27 35.64124 120.45537 32164 ft 457 kts 334°
2026-04-18 06:27 35.69953 120.42691 32167 ft 456 kts 334°
2026-04-18 06:28 35.75844 120.39805 32136 ft 456 kts 334°
2026-04-18 06:28 35.81744 120.36914 32104 ft 456 kts 334°
2026-04-18 06:29 35.87634 120.34017 32076 ft 456 kts 334°
2026-04-18 06:29 35.90638 120.32750 31961 ft 456 kts 342°
2026-04-18 06:29 35.93782 120.32168 31414 ft 460 kts 355°
2026-04-18 06:29 35.96982 120.32544 31041 ft 465 kts 11°
2026-04-18 06:30 36.00009 120.33856 31102 ft 472 kts 24°
2026-04-18 06:30 36.02801 120.35991 31118 ft 474 kts 37°
2026-04-18 06:30 36.05175 120.38827 31136 ft 476 kts 47°
2026-04-18 06:31 36.09687 120.44801 31125 ft 475 kts 38°
2026-04-18 06:31 36.12450 120.47013 31108 ft 472 kts 23°
2026-04-18 06:31 36.15537 120.48286 31108 ft 466 kts
2026-04-18 06:32 36.21958 120.48735 31152 ft 462 kts 358°
2026-04-18 06:32 36.28377 120.48928 31124 ft 461 kts 359°
2026-04-18 06:33 36.34781 120.49352 31102 ft 460 kts
2026-04-18 06:33 36.41082 120.50874 31084 ft 464 kts 16°
2026-04-18 06:34 36.47102 120.53698 31073 ft 466 kts 19°
2026-04-18 06:34 36.53213 120.56322 31068 ft 462 kts
2026-04-18 06:35 36.59579 120.57452 31095 ft 461 kts
2026-04-18 06:35 36.65970 120.58414 31073 ft 464 kts
2026-04-18 06:36 36.72323 120.59548 31152 ft 463 kts
2026-04-18 06:36 36.78710 120.60697 31161 ft 464 kts
2026-04-18 06:37 36.85108 120.61782 31172 ft 464 kts
2026-04-18 06:37 36.91483 120.62889 31170 ft 462 kts
2026-04-18 06:38 36.97859 120.64034 31143 ft 462 kts
2026-04-18 06:38 37.04202 120.65246 31101 ft 461 kts
2026-04-18 06:39 37.10546 120.66436 31065 ft 461 kts
2026-04-18 06:39 37.16879 120.67610 31070 ft 459 kts
2026-04-18 06:40 37.23199 120.68796 31071 ft 459 kts
2026-04-18 06:40 37.29517 120.69982 31092 ft 459 kts
2026-04-18 06:41 37.35829 120.71168 31113 ft 458 kts
2026-04-18 06:41 37.42133 120.72354 31121 ft 458 kts
2026-04-18 06:42 37.48432 120.73542 31128 ft 458 kts
2026-04-18 06:42 37.54734 120.74731 31130 ft 458 kts
2026-04-18 06:43 37.61043 120.75774 31132 ft 457 kts
2026-04-18 06:43 37.67369 120.76523 31151 ft 456 kts
2026-04-18 06:44 37.73650 120.77248 31150 ft 456 kts
2026-04-18 06:44 37.79968 120.78015 31144 ft 456 kts
2026-04-18 06:45 37.86274 120.78775 31144 ft 455 kts
2026-04-18 06:45 37.92570 120.79525 31143 ft 455 kts
2026-04-18 06:46 37.98880 120.80389 31108 ft 457 kts
2026-04-18 06:46 38.01937 120.81526 31070 ft 460 kts 21°
2026-04-18 06:46 38.04783 120.83400 31085 ft 461 kts 28°
2026-04-18 06:47 38.10240 120.87675 31140 ft 460 kts 30°
2026-04-18 06:47 38.15695 120.91892 31139 ft 458 kts 28°
2026-04-18 06:48 38.21201 120.95960 31100 ft 458 kts 30°
2026-04-18 06:48 38.23752 120.98383 31050 ft 461 kts 41°
2026-04-18 06:48 38.25206 121.00365 31052 ft 462 kts 50°
2026-04-18 06:48 38.26902 121.03831 31076 ft 463 kts 64°
2026-04-18 06:49 38.28207 121.07582 31107 ft 463 kts 66°
2026-04-18 06:49 38.30666 121.15179 31071 ft 466 kts 66°
2026-04-18 06:50 38.33281 121.22734 31076 ft 467 kts 65°
2026-04-18 06:50 38.35977 121.30314 31078 ft 470 kts 65°
2026-04-18 06:51 38.38580 121.37908 31114 ft 471 kts 66°
2026-04-18 06:51 38.41210 121.45565 31168 ft 471 kts 64°
2026-04-18 06:52 38.44155 121.53021 31166 ft 471 kts 62°
2026-04-18 06:52 38.47167 121.60447 31164 ft 471 kts 62°
2026-04-18 06:53 38.50141 121.67900 31166 ft 471 kts 62°
2026-04-18 06:53 38.53102 121.75365 31158 ft 471 kts 62°
2026-04-18 06:54 38.56075 121.82830 31159 ft 471 kts 62°
2026-04-18 06:54 38.59035 121.90289 31147 ft 471 kts 62°
2026-04-18 06:55 38.61989 121.97768 31129 ft 471 kts 62°
2026-04-18 06:55 38.64938 122.05241 31130 ft 470 kts 62°
2026-04-18 06:56 38.67935 122.12679 31107 ft 470 kts 57°
2026-04-18 06:56 38.69892 122.16021 31069 ft 467 kts 44°
2026-04-18 06:56 38.72351 122.18682 31083 ft 461 kts 31°
2026-04-18 06:57 38.77797 122.22884 31097 ft 460 kts 27°
2026-04-18 06:57 38.86043 122.29234 31120 ft 461 kts 29°
2026-04-18 06:58 38.91460 122.33623 31171 ft 460 kts 29°
2026-04-18 06:58 38.96904 122.37923 31163 ft 459 kts 28°
2026-04-18 06:59 39.02347 122.42221 31166 ft 458 kts 28°
2026-04-18 06:59 39.07766 122.46549 31160 ft 457 kts 28°
2026-04-18 07:00 39.13176 122.50865 31134 ft 457 kts 28°
2026-04-18 07:00 39.18578 122.55179 31112 ft 456 kts 28°
2026-04-18 07:01 39.23954 122.59484 31147 ft 454 kts 28°
2026-04-18 07:01 39.29356 122.63599 31125 ft 452 kts 25°
2026-04-18 07:02 39.34870 122.67504 31082 ft 452 kts 25°
2026-04-18 07:02 39.40383 122.71411 31075 ft 452 kts 25°
2026-04-18 07:03 39.45882 122.75355 31065 ft 452 kts 25°
2026-04-18 07:03 39.51394 122.79305 31070 ft 452 kts 25°
2026-04-18 07:04 39.56887 122.83240 31132 ft 451 kts 25°
2026-04-18 07:04 39.62395 122.87193 31147 ft 451 kts 25°
2026-04-18 07:05 39.67891 122.91153 31144 ft 452 kts 25°
2026-04-18 07:05 39.73384 122.95117 31151 ft 451 kts 25°
2026-04-18 07:06 39.78867 122.99077 31136 ft 451 kts 25°
2026-04-18 07:06 39.84344 123.03040 31129 ft 450 kts 25°
2026-04-18 07:07 39.89821 123.07010 31092 ft 450 kts 25°
2026-04-18 07:07 39.95290 123.10985 31100 ft 449 kts 25°
2026-04-18 07:08 40.00744 123.14958 31073 ft 449 kts 25°
2026-04-18 07:08 40.06179 123.18914 31058 ft 449 kts 25°
2026-04-18 07:09 40.11640 123.22844 31116 ft 447 kts 24°
2026-04-18 07:09 40.17072 123.26738 31118 ft 445 kts 24°
2026-04-18 07:10 40.22497 123.30662 31075 ft 445 kts 24°
2026-04-18 07:10 40.27911 123.34585 31038 ft 444 kts 24°
2026-04-18 07:11 40.33317 123.38501 31033 ft 444 kts 24°
2026-04-18 07:11 40.38728 123.42426 31045 ft 444 kts 24°
2026-04-18 07:12 40.44140 123.46367 31041 ft 445 kts 24°
2026-04-18 07:12 40.49558 123.50315 31040 ft 446 kts 24°
2026-04-18 07:13 40.54989 123.54281 31076 ft 446 kts 24°
2026-04-18 07:13 40.60387 123.58235 31106 ft 446 kts 24°
2026-04-18 07:14 40.65816 123.62206 31085 ft 447 kts 24°
2026-04-18 07:14 40.71248 123.66185 31115 ft 447 kts 24°
2026-04-18 07:15 40.76680 123.70180 31121 ft 447 kts 24°
2026-04-18 07:15 40.82114 123.74177 31119 ft 447 kts 24°
2026-04-18 07:16 40.87553 123.78137 31121 ft 445 kts 23°
2026-04-18 07:16 40.93014 123.81979 31086 ft 444 kts 22°
2026-04-18 07:17 40.98425 123.85838 31046 ft 444 kts 23°
2026-04-18 07:17 41.03856 123.89751 31035 ft 444 kts 23°
2026-04-18 07:18 41.09292 123.93652 31028 ft 445 kts 22°
2026-04-18 07:18 41.14729 123.97554 31026 ft 445 kts 22°
2026-04-18 07:19 41.20180 124.01489 31048 ft 446 kts 22°
2026-04-18 07:19 41.25636 124.05428 31109 ft 445 kts 22°
2026-04-18 07:20 41.31042 124.09336 31117 ft 444 kts 22°
2026-04-18 07:20 41.36498 124.13295 31118 ft 443 kts 22°
2026-04-18 07:21 41.41857 124.17188 31104 ft 441 kts 22°
2026-04-18 07:21 41.47210 124.21202 31060 ft 441 kts 23°
2026-04-18 07:22 41.52541 124.25266 31027 ft 440 kts 23°
2026-04-18 07:22 41.57880 124.29281 31030 ft 440 kts 22°
2026-04-18 07:23 41.63210 124.33295 31028 ft 441 kts 22°
2026-04-18 07:23 41.68560 124.37353 31033 ft 442 kts 22°
2026-04-18 07:24 41.73923 124.41419 31032 ft 444 kts 22°
2026-04-18 07:24 41.79303 124.45506 31064 ft 444 kts 23°
2026-04-18 07:25 41.84682 124.49604 31125 ft 444 kts 23°
2026-04-18 07:25 41.90019 124.53675 31118 ft 444 kts 23°
2026-04-18 07:26 41.95392 124.57779 31127 ft 444 kts 23°
2026-04-18 07:26 42.00807 124.61728 31124 ft 440 kts 20°
2026-04-18 07:27 42.06261 124.65444 31125 ft 438 kts 19°
2026-04-18 07:27 42.11689 124.69144 31114 ft 437 kts 19°
2026-04-18 07:28 42.17099 124.72871 31075 ft 435 kts 19°
2026-04-18 07:28 42.19773 124.74714 30909 ft 430 kts 19°
2026-04-18 07:28 42.22424 124.76542 30373 ft 427 kts 19°
2026-04-18 07:29 42.25076 124.78367 29702 ft 426 kts 19°
2026-04-18 07:29 42.27705 124.80178 29148 ft 423 kts 19°
2026-04-18 07:29 42.30313 124.81979 28615 ft 419 kts 19°
2026-04-18 07:29 42.32906 124.83773 28090 ft 416 kts 19°
2026-04-18 07:30 42.35461 124.85542 27576 ft 412 kts 19°
2026-04-18 07:30 42.37975 124.87282 27090 ft 408 kts 19°
2026-04-18 07:30 42.40482 124.89021 26579 ft 404 kts 19°
2026-04-18 07:30 42.42975 124.90751 26093 ft 400 kts 19°
2026-04-18 07:31 42.45443 124.92462 25595 ft 396 kts 19°
2026-04-18 07:31 42.47886 124.94158 25109 ft 392 kts 19°
2026-04-18 07:31 42.50304 124.95840 24679 ft 389 kts 19°
2026-04-18 07:31 42.52706 124.97511 24598 ft 388 kts 19°
2026-04-18 07:32 42.55111 124.99185 24614 ft 388 kts 19°
2026-04-18 07:32 42.57527 125.00867 24625 ft 395 kts 19°
2026-04-18 07:32 42.60010 125.02587 24631 ft 407 kts 19°
2026-04-18 07:32 42.62566 125.04361 24628 ft 417 kts 19°
2026-04-18 07:33 42.65161 125.06178 24622 ft 422 kts 20°
2026-04-18 07:33 42.67781 125.08022 24632 ft 426 kts 20°
2026-04-18 07:33 42.70420 125.09880 24632 ft 429 kts 20°
2026-04-18 07:33 42.73076 125.11747 24627 ft 428 kts 20°
2026-04-18 07:34 42.75719 125.13604 24627 ft 428 kts 20°
2026-04-18 07:34 42.78333 125.15440 24621 ft 427 kts 20°
2026-04-18 07:34 42.80968 125.17381 24465 ft 425 kts 24°
2026-04-18 07:34 42.83267 125.19893 23800 ft 437 kts 38°
2026-04-18 07:35 42.85122 125.23244 23010 ft 449 kts 49°
2026-04-18 07:35 42.86770 125.26862 22410 ft 446 kts 51°
2026-04-18 07:35 42.88371 125.30466 21776 ft 442 kts 51°
2026-04-18 07:35 42.90002 125.33979 21174 ft 435 kts 48°
2026-04-18 07:36 42.91974 125.36983 20546 ft 415 kts 32°
2026-04-18 07:36 42.94356 125.39041 19967 ft 398 kts 19°
2026-04-18 07:36 42.96825 125.40680 19363 ft 393 kts 18°
2026-04-18 07:36 42.98469 125.41733 18955 ft 391 kts 18°
2026-04-18 07:37 43.00914 125.43327 18348 ft 389 kts 18°
2026-04-18 07:37 43.03332 125.44984 17733 ft 387 kts 19°
2026-04-18 07:37 43.05708 125.46678 17124 ft 384 kts 20°
2026-04-18 07:37 43.08069 125.48377 16500 ft 382 kts 20°
2026-04-18 07:38 43.10420 125.50054 15869 ft 379 kts 20°
2026-04-18 07:38 43.12757 125.51700 15242 ft 377 kts 20°
2026-04-18 07:38 43.15084 125.53326 14613 ft 374 kts 20°
2026-04-18 07:38 43.17401 125.54949 13983 ft 372 kts 20°
2026-04-18 07:39 43.19697 125.56567 13364 ft 371 kts 21°
2026-04-18 07:39 43.21999 125.58197 12925 ft 372 kts 21°
2026-04-18 07:39 43.24298 125.59825 12848 ft 372 kts 20°
2026-04-18 07:39 43.26672 125.61011 12814 ft 352 kts
2026-04-18 07:40 43.29010 125.61107 12676 ft 324 kts 346°
2026-04-18 07:40 43.31111 125.60395 12451 ft 309 kts 338°
2026-04-18 07:40 43.33154 125.59440 11989 ft 304 kts 336°
2026-04-18 07:40 43.35068 125.58381 11588 ft 294 kts 330°
2026-04-18 07:41 43.36806 125.57071 11378 ft 277 kts 326°
2026-04-18 07:41 43.38408 125.55734 11193 ft 262 kts 325°
2026-04-18 07:41 43.39931 125.54418 10853 ft 255 kts 325°
2026-04-18 07:41 43.41415 125.53116 10385 ft 253 kts 325°
2026-04-18 07:42 43.42897 125.51797 9867 ft 254 kts 325°
2026-04-18 07:42 43.44371 125.50461 9341 ft 255 kts 325°
2026-04-18 07:42 43.45853 125.49096 8824 ft 257 kts 325°
2026-04-18 07:42 43.47330 125.47713 8416 ft 257 kts 324°
2026-04-18 07:43 43.48800 125.46324 8028 ft 257 kts 324°
2026-04-18 07:43 43.50269 125.44926 7661 ft 256 kts 324°
2026-04-18 07:43 43.51723 125.43532 7298 ft 255 kts 324°
2026-04-18 07:43 43.53173 125.42132 6934 ft 254 kts 324°
2026-04-18 07:44 43.54619 125.40729 6570 ft 254 kts 325°
2026-04-18 07:44 43.56207 125.39721 6175 ft 254 kts 346°
2026-04-18 07:44 43.57951 125.39360 5848 ft 251 kts 353°
2026-04-18 07:44 43.59691 125.39141 5491 ft 251 kts 354°
2026-04-18 07:45 43.61439 125.38947 5120 ft 251 kts 354°
2026-04-18 07:45 43.63156 125.38756 4771 ft 250 kts 355°
2026-04-18 07:45 43.64890 125.38557 4408 ft 250 kts 355°
2026-04-18 07:45 43.66648 125.38347 4049 ft 250 kts 354°
2026-04-18 07:46 43.68351 125.38136 3701 ft 250 kts 354°
2026-04-18 07:46 43.70075 125.37917 3451 ft 244 kts 354°
2026-04-18 07:46 43.71729 125.37701 3345 ft 233 kts 354°
2026-04-18 07:46 43.73310 125.37491 3196 ft 224 kts 354°
2026-04-18 07:47 43.74858 125.37414 2972 ft 222 kts
2026-04-18 07:47 43.76363 125.37961 2986 ft 224 kts 18°
2026-04-18 07:47 43.77833 125.38657 2995 ft 223 kts 19°
2026-04-18 07:47 43.79297 125.39382 3000 ft 224 kts 19°
2026-04-18 07:48 43.80740 125.40190 3000 ft 224 kts 26°
2026-04-18 07:48 43.82110 125.41203 3005 ft 224 kts 29°
2026-04-18 07:48 43.83359 125.42491 3000 ft 224 kts 44°
2026-04-18 07:48 43.84416 125.44077 3007 ft 224 kts 48°
2026-04-18 07:49 43.85429 125.45721 3007 ft 225 kts 49°
2026-04-18 07:49 43.86444 125.47370 3008 ft 225 kts 48°
2026-04-18 07:49 43.87469 125.49005 3007 ft 225 kts 48°
2026-04-18 07:49 43.88494 125.50643 3005 ft 223 kts 48°
2026-04-18 07:50 43.89475 125.52217 2999 ft 209 kts 48°
2026-04-18 07:50 43.90395 125.53690 3030 ft 197 kts 48°
2026-04-18 07:50 43.91236 125.55040 2908 ft 177 kts 48°
2026-04-18 07:50 43.92008 125.56276 2726 ft 161 kts 48°
2026-04-18 07:51 43.92713 125.57407 2504 ft 150 kts 48°
2026-04-18 07:51 43.93389 125.58491 2316 ft 149 kts 48°
2026-04-18 07:51 43.94071 125.59583 2115 ft 149 kts 48°
2026-04-18 07:51 43.94747 125.60669 1912 ft 148 kts 48°
2026-04-18 07:52 43.95419 125.61743 1727 ft 147 kts 48°
2026-04-18 07:52 43.96092 125.62820 1510 ft 147 kts 48°
2026-04-18 07:52 43.96757 125.63894 1306 ft 147 kts 48°
2026-04-18 07:52 43.97419 125.64969 1111 ft 146 kts 48°
2026-04-18 07:53 43.98074 125.66047 914 ft 146 kts 48°
2026-04-18 07:53 43.98734 125.67087 754 ft 145 kts 47°
2026-04-18 07:53 43.99378 125.68093 721 ft 124 kts 49°
2026-04-18 07:53 43.99816 125.68810 721 ft 63 kts 45°
2026-04-18 07:54 43.99932 125.69053 721 ft 22 kts 80°
2026-04-18 07:54 43.99954 125.69186 721 ft 12 kts 77°
2026-04-18 07:54 43.99945 125.69302 721 ft 14 kts 150°
2026-04-18 07:54 43.99867 125.69250 721 ft 14 kts 230°
2026-04-18 07:55 43.99798 125.69137 721 ft 17 kts 229°
2026-04-18 07:55 43.99726 125.69024 721 ft 12 kts 229°
2026-04-18 07:55 43.99664 125.68963 721 ft 11 kts 174°
2026-04-18 07:55 43.99626 125.68991 721 ft 0 kts 139°
2026-04-18 07:56 43.99626 125.68992 721 ft 0 kts 139°
2026-04-18 07:56 43.99624 125.68994 721 ft 2 kts 139°
2026-04-18 07:57 43.99606 125.69015 721 ft 5 kts 139°
2026-04-18 07:57 43.99564 125.69045 721 ft 8 kts 185°
2026-04-18 07:57 43.99511 125.68988 721 ft 11 kts 228°
2026-04-18 07:57 43.99457 125.68900 721 ft 11 kts 229°
2026-04-18 07:58 43.99366 125.68881 721 ft 4 kts 138°
2026-04-18 07:58 43.99349 125.68903 721 ft 3 kts 139°
2026-04-18 07:58 43.99345 125.68908 721 ft 0 kts 139°